SKW3668 KMEM-KMSP

Flight info

Callsign SKW3668
Flight time N/A
Altitude 36000
Route JTEEE5 ODATE STL IOW MNOSO BLUEM5
Aircraft CRJ9/M-SDFGIRWY/S

Departure

Time 2026-05-01 12:48
Airport Memphis International Airport (KMEM)

Arrival

Time N/A
Airport Minneapolis–Saint Paul International Airport / Wold–Chamberlain Field (KMSP)
Time Latitude Longitude Altitude Speed Heading
2026-05-01 11:56 35.04329 -89.98094 329 ft 0 kts 295°
2026-05-01 12:31 35.04329 -89.98092 329 ft 2 kts 295°
2026-05-01 12:31 35.04319 -89.98067 326 ft 2 kts 295°
2026-05-01 12:32 35.04314 -89.98042 328 ft 4 kts 252°
2026-05-01 12:32 35.04352 -89.98032 326 ft 1 kts 179°
2026-05-01 12:32 35.04353 -89.98032 326 ft 0 kts 179°
2026-05-01 12:38 35.04338 -89.98032 327 ft 4 kts 179°
2026-05-01 12:39 35.04311 -89.98029 328 ft 5 kts 164°
2026-05-01 12:39 35.04276 -89.97998 327 ft 7 kts 135°
2026-05-01 12:39 35.04236 -89.97946 325 ft 10 kts 130°
2026-05-01 12:39 35.04194 -89.97871 325 ft 11 kts 108°
2026-05-01 12:40 35.04135 -89.97836 328 ft 11 kts 182°
2026-05-01 12:40 35.04050 -89.97838 326 ft 14 kts 179°
2026-05-01 12:40 35.03936 -89.97836 328 ft 19 kts 179°
2026-05-01 12:40 35.03793 -89.97834 326 ft 21 kts 179°
2026-05-01 12:41 35.03645 -89.97830 328 ft 21 kts 179°
2026-05-01 12:41 35.03499 -89.97827 326 ft 21 kts 179°
2026-05-01 12:41 35.03356 -89.97824 326 ft 20 kts 179°
2026-05-01 12:41 35.03223 -89.97821 326 ft 20 kts 179°
2026-05-01 12:42 35.03095 -89.97819 326 ft 20 kts 179°
2026-05-01 12:42 35.02959 -89.97815 326 ft 19 kts 179°
2026-05-01 12:42 35.02825 -89.97813 326 ft 19 kts 179°
2026-05-01 12:42 35.02692 -89.97810 328 ft 19 kts 179°
2026-05-01 12:43 35.02562 -89.97806 328 ft 19 kts 179°
2026-05-01 12:43 35.02453 -89.97805 328 ft 9 kts 178°
2026-05-01 12:43 35.02412 -89.97760 325 ft 9 kts 97°
2026-05-01 12:43 35.02413 -89.97686 326 ft 3 kts 89°
2026-05-01 12:45 35.02413 -89.97675 326 ft 3 kts 89°
2026-05-01 12:46 35.02413 -89.97638 325 ft 6 kts 89°
2026-05-01 12:46 35.02418 -89.97574 323 ft 8 kts 65°
2026-05-01 12:46 35.02461 -89.97555 323 ft 6 kts 359°
2026-05-01 12:46 35.02470 -89.97555 321 ft 0 kts 359°
2026-05-01 12:47 35.02530 -89.97556 324 ft 32 kts 359°
2026-05-01 12:47 35.03001 -89.97566 323 ft 102 kts 359°
2026-05-01 12:47 35.03912 -89.97585 323 ft 157 kts 359°
2026-05-01 12:47 35.05068 -89.97595 825 ft 164 kts 360°
2026-05-01 12:48 35.06188 -89.97627 1705 ft 161 kts 352°
2026-05-01 12:48 35.07275 -89.97779 2418 ft 159 kts 356°
2026-05-01 12:48 35.08462 -89.97876 2746 ft 183 kts 354°
2026-05-01 12:48 35.09756 -89.98240 3231 ft 199 kts 343°
2026-05-01 12:49 35.11102 -89.98821 3812 ft 214 kts 343°
2026-05-01 12:49 35.12595 -89.99339 4312 ft 232 kts 347°
2026-05-01 12:49 35.14219 -89.99803 4886 ft 247 kts 349°
2026-05-01 12:49 35.15724 -90.00111 5420 ft 256 kts 354°
2026-05-01 12:50 35.17495 -90.00353 6147 ft 263 kts 354°
2026-05-01 12:50 35.19332 -90.00597 6895 ft 268 kts 353°
2026-05-01 12:50 35.21196 -90.00882 7680 ft 271 kts 351°
2026-05-01 12:50 35.23072 -90.01188 8498 ft 273 kts 352°
2026-05-01 12:51 35.24979 -90.01364 9338 ft 276 kts 354°
2026-05-01 12:51 35.26904 -90.01459 10141 ft 278 kts 354°
2026-05-01 12:51 35.30893 -90.01623 11075 ft 304 kts 353°
2026-05-01 12:52 35.33064 -90.01739 11413 ft 321 kts 353°
2026-05-01 12:52 35.37609 -90.02006 12575 ft 336 kts 353°
2026-05-01 12:52 35.39952 -90.02148 13290 ft 340 kts 352°
2026-05-01 12:53 35.44726 -90.02433 14636 ft 347 kts 352°
2026-05-01 12:53 35.47144 -90.02581 15285 ft 350 kts 352°
2026-05-01 12:53 35.49585 -90.02729 15921 ft 352 kts 352°
2026-05-01 12:54 35.52041 -90.02873 16599 ft 354 kts 351°
2026-05-01 12:54 35.57000 -90.03174 17811 ft 360 kts 351°
2026-05-01 12:54 35.59511 -90.03320 18405 ft 363 kts 351°
2026-05-01 12:55 35.64589 -90.03659 19353 ft 368 kts 348°
2026-05-01 12:55 35.67160 -90.03887 19811 ft 372 kts 347°
2026-05-01 12:55 35.69747 -90.04114 20269 ft 375 kts 347°
2026-05-01 12:56 35.72367 -90.04341 20718 ft 378 kts 346°
2026-05-01 12:56 35.75008 -90.04562 21156 ft 382 kts 346°
2026-05-01 12:56 35.77660 -90.04800 21653 ft 383 kts 345°
2026-05-01 12:56 35.80284 -90.05100 22074 ft 384 kts 343°
2026-05-01 12:57 35.82947 -90.05474 22496 ft 386 kts 342°
2026-05-01 12:57 35.88339 -90.06215 23329 ft 393 kts 341°
2026-05-01 12:57 35.91064 -90.06586 23727 ft 395 kts 341°
2026-05-01 12:58 35.93803 -90.06959 24065 ft 398 kts 341°
2026-05-01 12:58 35.96562 -90.07334 24394 ft 400 kts 341°
2026-05-01 12:58 35.99338 -90.07711 24719 ft 402 kts 341°
2026-05-01 12:59 36.04569 -90.08423 25311 ft 406 kts 340°
2026-05-01 12:59 36.07388 -90.08806 25618 ft 409 kts 340°
2026-05-01 12:59 36.13071 -90.09583 26215 ft 413 kts 340°
2026-05-01 13:00 36.18818 -90.10365 26774 ft 417 kts 339°
2026-05-01 13:00 36.21712 -90.10760 27047 ft 419 kts 339°
2026-05-01 13:01 36.27546 -90.11562 27620 ft 424 kts 339°
2026-05-01 13:01 36.30480 -90.11965 27881 ft 425 kts 339°
2026-05-01 13:01 36.36394 -90.12773 28377 ft 429 kts 339°
2026-05-01 13:02 36.39368 -90.13181 28616 ft 431 kts 339°
2026-05-01 13:07 37.00846 -90.21687 33943 ft 421 kts 334°
2026-05-01 13:07 37.03753 -90.22091 34145 ft 420 kts 334°
2026-05-01 13:07 37.06656 -90.22495 34312 ft 420 kts 334°
2026-05-01 13:08 37.09553 -90.22901 34477 ft 419 kts 334°
2026-05-01 13:08 37.12453 -90.23306 34640 ft 419 kts 334°
2026-05-01 13:08 37.15347 -90.23709 34814 ft 418 kts 334°
2026-05-01 13:08 37.18236 -90.24112 34974 ft 417 kts 334°
2026-05-01 13:09 37.21121 -90.24517 35112 ft 417 kts 334°
2026-05-01 13:09 37.24004 -90.24923 35281 ft 417 kts 335°
2026-05-01 13:09 37.26875 -90.25322 35540 ft 414 kts 335°
2026-05-01 13:09 37.29733 -90.25719 35693 ft 413 kts 335°
2026-05-01 13:10 37.32589 -90.26120 35841 ft 412 kts 335°
2026-05-01 13:10 37.35434 -90.26519 35990 ft 411 kts 335°
2026-05-01 13:10 37.38283 -90.26923 36063 ft 413 kts 335°
2026-05-01 13:11 37.44025 -90.27738 36115 ft 417 kts 335°
2026-05-01 13:11 37.49781 -90.28547 36181 ft 416 kts 335°
2026-05-01 13:12 37.55533 -90.29349 36157 ft 415 kts 335°
2026-05-01 13:12 37.61259 -90.30157 36152 ft 413 kts 335°
2026-05-01 13:13 37.66869 -90.30951 36159 ft 410 kts 335°
2026-05-01 13:13 37.72533 -90.31755 36193 ft 408 kts 335°
2026-05-01 13:14 37.78176 -90.32557 36167 ft 407 kts 335°
2026-05-01 13:14 37.83796 -90.33353 36154 ft 405 kts 335°
2026-05-01 13:15 37.89348 -90.34143 36152 ft 403 kts 335°
2026-05-01 13:15 37.94909 -90.34939 36158 ft 401 kts 335°
2026-05-01 13:16 38.00202 -90.35717 36154 ft 401 kts 336°
2026-05-01 13:16 38.05598 -90.36480 36143 ft 399 kts 336°
2026-05-01 13:17 38.15636 -90.37987 36144 ft 395 kts 335°
2026-05-01 13:18 38.23808 -90.39200 36144 ft 394 kts 337°
2026-05-01 13:18 38.29257 -90.39986 36134 ft 395 kts 337°
2026-05-01 13:19 38.34729 -90.40779 36134 ft 397 kts 337°
2026-05-01 13:20 38.42991 -90.41976 36132 ft 400 kts 337°
2026-05-01 13:20 38.48529 -90.42778 36132 ft 401 kts 337°
2026-05-01 13:21 38.56878 -90.44004 36141 ft 404 kts 337°
2026-05-01 13:21 38.62476 -90.44821 36141 ft 406 kts 337°
2026-05-01 13:22 38.68104 -90.45647 36170 ft 409 kts 338°
2026-05-01 13:22 38.73687 -90.46461 36151 ft 411 kts 338°
2026-05-01 13:23 38.79375 -90.47294 36148 ft 412 kts 338°
2026-05-01 13:23 38.85063 -90.48195 36136 ft 407 kts 334°
2026-05-01 13:24 38.90484 -90.49873 36180 ft 396 kts 329°
2026-05-01 13:25 38.98338 -90.53154 36142 ft 397 kts 328°
2026-05-01 13:25 39.03286 -90.55188 36136 ft 399 kts 328°
2026-05-01 13:26 39.08598 -90.57346 36133 ft 401 kts 328°
2026-05-01 13:26 39.13916 -90.59532 36149 ft 402 kts 328°
2026-05-01 13:27 39.19222 -90.61716 36120 ft 404 kts 328°
2026-05-01 13:27 39.27255 -90.65033 36110 ft 405 kts 328°
2026-05-01 13:28 39.35310 -90.68368 36165 ft 406 kts 328°
2026-05-01 13:29 39.46009 -90.72808 36118 ft 409 kts 328°
2026-05-01 13:31 39.62298 -90.79615 36129 ft 412 kts 328°
2026-05-01 13:32 39.75976 -90.85332 36117 ft 414 kts 328°
2026-05-01 13:33 39.89587 -90.91063 36116 ft 416 kts 329°
2026-05-01 13:34 40.00360 -90.95609 36131 ft 416 kts 329°
2026-05-01 13:35 40.08481 -90.99064 36127 ft 418 kts 330°
2026-05-01 13:36 40.16415 -91.02432 36115 ft 419 kts 330°
2026-05-01 13:36 40.24738 -91.05974 36115 ft 420 kts 330°
2026-05-01 13:37 40.30297 -91.08357 36127 ft 421 kts 330°
2026-05-01 13:37 40.35872 -91.10730 36123 ft 421 kts 330°
2026-05-01 13:38 40.44233 -91.14309 36125 ft 420 kts 330°
2026-05-01 13:39 40.49737 -91.16684 36138 ft 418 kts 331°
2026-05-01 13:39 40.55257 -91.19052 36129 ft 417 kts 332°
2026-05-01 13:40 40.60759 -91.21415 36132 ft 415 kts 332°
2026-05-01 13:40 40.66167 -91.23748 36133 ft 413 kts 331°
2026-05-01 13:41 40.71616 -91.26100 36133 ft 411 kts 331°
2026-05-01 13:41 40.77038 -91.28447 36135 ft 409 kts 331°
2026-05-01 13:42 40.82438 -91.30783 36128 ft 408 kts 331°
2026-05-01 13:42 40.87829 -91.33127 36133 ft 407 kts 331°
2026-05-01 13:43 40.93132 -91.35452 36149 ft 406 kts 332°
2026-05-01 13:43 40.98474 -91.37838 36140 ft 405 kts 332°
2026-05-01 13:44 41.03397 -91.39974 36137 ft 405 kts 332°
2026-05-01 13:44 41.08741 -91.42293 36133 ft 403 kts 332°
2026-05-01 13:45 41.14063 -91.44633 36149 ft 402 kts 332°
2026-05-01 13:45 41.19378 -91.46973 36118 ft 402 kts 333°
2026-05-01 13:46 41.24689 -91.49295 36112 ft 401 kts 332°
2026-05-01 13:46 41.29980 -91.51622 36110 ft 400 kts 332°
2026-05-01 13:47 41.35179 -91.53923 36130 ft 399 kts 333°
2026-05-01 13:47 41.40446 -91.56258 36116 ft 399 kts 333°
2026-05-01 13:48 41.45718 -91.58575 36113 ft 398 kts 333°
2026-05-01 13:48 41.50748 -91.61304 36132 ft 385 kts 322°
2026-05-01 13:49 41.55309 -91.65014 36171 ft 383 kts 319°
2026-05-01 13:49 41.59493 -91.69349 36142 ft 381 kts 313°
2026-05-01 13:50 41.63555 -91.73941 36133 ft 385 kts 315°
2026-05-01 13:50 41.67743 -91.78447 36132 ft 387 kts 314°
2026-05-01 13:51 41.71947 -91.82995 36119 ft 390 kts 314°
2026-05-01 13:51 41.76182 -91.87586 36143 ft 393 kts 314°
2026-05-01 13:52 41.80442 -91.92218 36119 ft 396 kts 315°
2026-05-01 13:52 41.84737 -91.96893 36116 ft 399 kts 315°
2026-05-01 13:53 41.88783 -92.01306 36114 ft 401 kts 315°
2026-05-01 13:53 41.95132 -92.08239 36113 ft 404 kts 315°
2026-05-01 13:54 41.99374 -92.12885 36117 ft 407 kts 315°
2026-05-01 13:54 42.03471 -92.17379 36112 ft 409 kts 315°
2026-05-01 13:55 42.07887 -92.22230 36110 ft 411 kts 315°
2026-05-01 13:55 42.12308 -92.27135 36112 ft 413 kts 315°
2026-05-01 13:56 42.16724 -92.32102 36110 ft 414 kts 315°
2026-05-01 13:56 42.21202 -92.37048 36117 ft 417 kts 316°
2026-05-01 13:57 42.24948 -92.41166 36112 ft 419 kts 316°
2026-05-01 13:57 42.30245 -92.46996 36111 ft 420 kts 316°
2026-05-01 13:58 42.34755 -92.51972 36109 ft 422 kts 316°
2026-05-01 13:58 42.39454 -92.56765 36128 ft 429 kts 327°
2026-05-01 13:59 42.44919 -92.60165 36115 ft 434 kts 332°
2026-05-01 13:59 42.50434 -92.63510 36114 ft 434 kts 329°
2026-05-01 14:00 42.55892 -92.67060 36110 ft 436 kts 330°
2026-05-01 14:00 42.61353 -92.70591 36114 ft 437 kts 330°
2026-05-01 14:01 42.66854 -92.74147 36101 ft 438 kts 330°
2026-05-01 14:01 42.72368 -92.77722 36097 ft 439 kts 330°
2026-05-01 14:02 42.77891 -92.81299 36099 ft 440 kts 330°
2026-05-01 14:02 42.83381 -92.84930 36096 ft 437 kts 330°
2026-05-01 14:03 42.88846 -92.88528 36092 ft 435 kts 330°
2026-05-01 14:03 42.94275 -92.92115 36089 ft 433 kts 330°
2026-05-01 14:04 42.99599 -92.95640 36109 ft 431 kts 330°
2026-05-01 14:04 43.02646 -92.97674 36099 ft 430 kts 330°
2026-05-01 14:05 43.03656 -92.98349 36096 ft 430 kts 330°
2026-05-01 14:05 43.08308 -93.01457 36104 ft 428 kts 330°
2026-05-01 14:06 43.10402 -93.02857 36106 ft 428 kts 330°